CZ-6A DEB, 54462

Orbit data source: Space-Track

CZ-6A DEB, 54462 is space debris in SSO originally from a launch on Fri, 11 Nov 2022 UTC launched from the Taiyaun Space Center, China (TSC). Debris objects in space refer to the collection of defunct objects orbiting the Earth. Examples of debris include non-operational satellites, rocket bodies, and fragments generated from explosions, collisions, or faulty payload assembly.

Loading next visibility...
Identifier
54462, 2022-151GN
Orbit
SSO
Country
Flag of CNCN / PRC
Related business
Manufacturer
SAST
Mission
Spacecraft
Bus & Motor
Unknown
Mass
Unknown
Launch date (UTC)
2022-11-11 (3 years ago)
Launch vehicle
Unknown
Launch site
Taiyaun Space Center, China (TSC)
Object type
Payload
Rocket body
Debris
Shape & HBR
Unknown shape, 1.1 m
Radar Cross Section
Small (<0.1 m²)

Expand to show TLE details & history
Last TLE update: 21 hours ago

TLE from 21 hours ago
0 CZ-6A DEB
1 54462U 22151GN  25349.83576411  .00003022  00000-0  16101-2 0  9998
2 54462  98.6976 312.6565 0155653 105.0949 256.7500 14.08052977157943
Epoch: 2025-12-15T20:03Z
TLE epoch observation values (Epoch: 2025-12-15T20:03:30.019Z)
Latitude
-0.00007°
Longitude
-72.94719°
Altitude
896.445 km
Speed
7.39 km/s
True Right ascension
20h 50m 37s
True Declination
0° 00' 00"
Sunlit
Object was in daylight at epoch
Visualization orbit readout
Latitude
Unknown
Longitude
Unknown
Altitude
Unknown
Speed
Unknown
Apparent Right ascension
Unknown
Apparent Declination
Unknown
Sunlit
N/A
Visualization observer readout
Local Sidereal Time
15:53:51
Azimuth
Unknown
Elevation
Unknown
Doppler factor
Unknown
Orbital elements
Apogee altitude
975.929 km
Perigee altitude
750.501 km
Semi-major axis
7,241.352 km
Eccentricity
0.01557
Inclination
98.6976°
RAAN
312.6565°
Arg. of periapsis
105.0949°
True anomaly
255.0218°
Mean anomaly
256.75°
Eccentric anomaly
255.8851°
Mean motion
3.5222 °/min
Orbital period
102.21 mins
BSTAR
0.0016101
Loading maneuver chart data...
Computing Atmospheric mass density...
Loading historical data...
Loading historical data...
Loading historical data...
Loading historical data...
Loading historical data...
Loading historical data...
Loading historical data...

Documentation

Showing up to 5 results
|